Sigfox identifier Datetime Temperature Humidity SNR
00395165 2018-10-09 08:33:02 21.5 38 23.2
00395165 2018-10-09 07:29:31 21.5 37 23.1
00395165 2018-10-09 06:26:02 21.5 37 22.9
00395165 2018-10-09 05:22:32 21.6 37 22.9
00395165 2018-10-09 02:12:05 21.6 37 22.7
00395165 2018-10-09 01:08:36 21.7 37 22.6
00395165 2018-10-09 00:05:06 21.7 37 22.4
00395165 2018-10-08 23:01:36 21.7 36 22.3
00395165 2018-10-08 21:58:07 21.7 36 22.3
00395165 2018-10-08 20:54:36 21.7 36 22.5
00395165 2018-10-08 19:51:06 21.7 36 22.3
00395165 2018-10-08 18:47:36 21.7 36 22.4
00395165 2018-10-08 17:44:07 21.7 36 22.2
00395165 2018-10-08 16:40:38 21.7 36 22.1
00395165 2018-10-08 15:37:12 21.7 36 22.3
00395165 2018-10-08 14:33:41 21.6 36 22.2
00395165 2018-10-08 13:30:14 21.5 36 22.2
00395165 2018-10-08 12:26:50 21.5 35 22.2
00395165 2018-10-08 11:23:20 21.5 36 22.1
00395165 2018-10-08 10:19:47 21.3 36 22
00395165 2018-10-08 09:16:15 21.3 36 21.9
00395165 2018-10-08 08:12:45 21.2 36 22.1
00395165 2018-10-08 07:09:15 21.3 36 22.3
00395165 2018-10-08 06:05:43 21.3 36 22.4
00395165 2018-10-08 05:02:13 21.3 37 22.7
00395165 2018-10-08 03:58:42 21.3 37 22.6
00395165 2018-10-08 02:55:10 21.3 37 22.4
00395165 2018-10-08 01:51:38 21.3 37 22.4
00395165 2018-10-08 00:48:06 21.3 37 22.4
00395165 2018-10-07 23:44:35 21.3 37 22.3
00395165 2018-10-07 22:41:03 21.3 38 22.2
00395165 2018-10-07 21:37:32 21.3 38 22.2
00395165 2018-10-07 20:34:00 21.3 38 22.2
00395165 2018-10-07 19:30:29 21.4 38 22
00395165 2018-10-07 18:26:58 21.3 38 22
00395165 2018-10-07 17:23:27 21.3 38 22
00395165 2018-10-07 16:19:55 21.4 38 21.9
00395165 2018-10-07 15:16:23 21.3 38 21.6
00395165 2018-10-07 14:12:55 21.4 38 21.8
00395165 2018-10-07 13:09:28 21.4 38 21.7
00395165 2018-10-07 12:05:56 21.4 38 21.7
00395165 2018-10-07 11:02:27 21.5 38 21.7
00395165 2018-10-07 09:58:54 21.5 38 21.8
00395165 2018-10-07 08:55:22 21.4 38 22
00395165 2018-10-07 07:51:51 21.5 38 21.8
00395165 2018-10-07 06:48:20 21.5 38 21.8
00395165 2018-10-07 05:44:47 21.5 38 21.7
00395165 2018-10-07 04:41:15 21.5 38 21.5
00395165 2018-10-07 03:37:46 21.5 38 21.4
00395165 2018-10-07 02:34:16 21.5 38 21
00395165 2018-10-07 01:30:46 21.5 38 21
00395165 2018-10-07 00:27:15 21.5 38 21.3
00395165 2018-10-06 23:23:44 21.5 38 21.7
00395165 2018-10-06 22:20:14 21.5 39 22
00395165 2018-10-06 21:16:45 21.5 38 22
00395165 2018-10-06 20:13:15 21.5 39 22
00395165 2018-10-06 19:09:46 21.6 39 21.7
00395165 2018-10-06 18:06:14 21.5 39 21.8
00395165 2018-10-06 17:02:44 21.7 39 21.6
00395165 2018-10-06 15:59:13 21.7 39 21.7
00395165 2018-10-06 14:55:44 21.5 39 21.8
00395165 2018-10-06 13:52:15 21.7 39 21.6
00395165 2018-10-06 12:48:42 21.6 39 21.8
00395165 2018-10-06 11:45:11 21.7 39 21.9
00395165 2018-10-06 10:41:36 21.6 39 21.8
00395165 2018-10-06 09:38:02 21.7 39 22
00395165 2018-10-06 08:34:30 21.7 39 21.8
00395165 2018-10-06 07:30:59 21.7 39 21.7
00395165 2018-10-06 06:27:28 21.7 39 21.5
00395165 2018-10-06 05:23:58 21.7 39 21.4
00395165 2018-10-06 04:20:27 21.7 39 21.5
00395165 2018-10-06 03:16:57 21.8 39 21.3
00395165 2018-10-06 02:13:25 21.8 39 21.3
00395165 2018-10-06 01:09:55 21.8 39 21.1
00395165 2018-10-06 00:06:24 21.9 39 21
00395165 2018-10-05 23:02:56 21.9 40 21
00395165 2018-10-05 21:59:27 21.9 40 20.6
00395165 2018-10-05 20:55:53 21.9 40 19.8
00395165 2018-10-05 19:52:22 21.9 40 19.3
00395165 2018-10-05 18:48:51 21.9 40 19
00395165 2018-10-05 17:45:21 21.9 40 19
00395165 2018-10-05 16:41:49 21.9 40 19
00395165 2018-10-05 15:38:17 21.9 40 18.9
00395165 2018-10-05 14:34:46 21.9 40 19
00395165 2018-10-05 13:31:15 21.7 41 18.3
00395165 2018-10-05 12:27:44 21.7 42 18.3
00395165 2018-10-05 11:24:14 21.3 43 18.4
00395165 2018-10-05 10:20:45 21 44 18.5
00395165 2018-10-05 09:17:15 20.9 40 17.9
00395165 2018-10-05 07:10:17 20.8 30 18.2
00395165 2018-10-05 06:06:50 20.8 29 17.9
00395165 2018-10-05 05:03:20 20.8 29 17.7
00395165 2018-10-05 03:59:52 20.8 29 17.5
00395165 2018-10-05 02:56:24 20.8 29 17.9
00395165 2018-10-05 01:52:55 20.8 29 18.1
00395165 2018-10-05 00:49:29 20.9 29 18.3
00395165 2018-10-04 23:46:03 21 30 18.7
00395165 2018-10-04 22:42:37 21 29 18.8
00395165 2018-10-04 21:39:11 21.1 29 18.8
00395165 2018-10-04 20:35:44 21.2 29 20.2
00395165 2018-10-04 19:32:13 21.2 28 20.3
00395165 2018-10-04 17:25:16 21.3 26 20.1
00395165 2018-10-04 16:21:50 21.3 29 20.1
00395165 2018-10-04 15:18:16 20.9 26 20.1
00395165 2018-10-04 14:14:49 20.9 28 21.2
00395165 2018-10-04 13:11:21 20.8 27 21.5
00395165 2018-10-04 12:07:53 20.8 29 22.5
00395165 2018-10-04 11:04:28 20.7 29 22.5
00395165 2018-10-04 10:00:58 20.6 31 22.5
00395165 2018-10-04 08:57:30 20.4 30 22.5
00395165 2018-10-04 07:54:05 20.4 31 22.4
00395165 2018-10-04 06:50:36 20.6 36 22.3
00395165 2018-10-04 05:47:07 20.6 36 22.2
00395165 2018-10-04 04:43:40 20.6 37 22.2
00395165 2018-10-04 03:40:09 20.6 37 22.1
00395165 2018-10-04 02:36:41 20.6 38 22
00395165 2018-10-04 01:33:12 20.6 38 22
00395165 2018-10-04 00:29:43 20.7 38 22
00395165 2018-10-03 23:26:13 20.7 39 22
00395165 2018-10-03 22:22:44 20.7 39 22
00395165 2018-10-03 21:19:12 20.8 40 21.9
00395165 2018-10-03 20:15:42 20.8 40 21.7
00395165 2018-10-03 19:12:13 20.7 40 21.8
00395165 2018-10-03 18:08:40 20.4 40 21.8
00395165 2018-10-03 17:05:08 20.6 43 21.1
00395165 2018-10-03 16:01:39 20.6 44 21.2
00395165 2018-10-03 14:58:08 20.6 45 21.2
00395165 2018-10-03 13:54:39 20.6 43 21.7
00395165 2018-10-03 12:51:08 20.6 43 21.8
00395165 2018-10-03 11:47:37 20.5 40 21.1
00395165 2018-10-03 10:44:06 20.6 41 21.5
00395165 2018-10-03 08:37:03 20.4 38 20.7
00395165 2018-10-03 07:33:35 20.4 38 21.3
00395165 2018-10-03 06:30:01 20.6 39 21.3
00395165 2018-10-03 05:26:30 20.6 40 21.8
00395165 2018-10-03 04:22:58 20.6 40 22
00395165 2018-10-03 03:19:28 20.6 40 22
00395165 2018-10-03 02:15:57 20.6 40 22.3
00395165 2018-10-03 01:12:23 20.6 40 22.7
00395165 2018-10-03 00:08:52 20.6 40 23
00395165 2018-10-02 23:05:20 20.6 40 23.3
00395165 2018-10-02 22:01:49 20.7 40 23.5
00395165 2018-10-02 20:58:15 20.6 39 23.5
00395165 2018-10-02 19:54:41 20.6 39 23.4
00395165 2018-10-02 18:51:08 20.6 39 23.4
00395165 2018-10-02 17:47:36 20.5 39 23.3
00395165 2018-10-02 16:44:03 20.6 42 23.5
00395165 2018-10-02 15:40:31 20.6 40 23.6
00395165 2018-10-02 14:36:54 20.6 38 23.8
00395165 2018-10-02 13:33:22 20.6 38 23.8
00395165 2018-10-02 12:29:48 20.6 39 23.9
00395165 2018-10-02 11:26:16 20.6 43 24.1
00395165 2018-10-02 10:22:46 20.6 43 24
00395165 2018-10-02 09:19:16 20.6 43 24.1
00395165 2018-10-02 08:15:44 20.4 40 24.2
00395165 2018-10-02 07:12:11 20.5 42 23.9
00395165 2018-10-02 06:08:37 20.6 42 23.6
00395165 2018-10-02 05:05:04 20.6 42 23.3
00395165 2018-10-02 04:01:31 20.6 43 23.5
00395165 2018-10-02 02:57:56 20.6 43 23.1
00395165 2018-10-02 01:54:22 20.6 43 23.2
00395165 2018-10-02 00:50:49 20.6 43 23.6
00395165 2018-10-01 23:47:11 20.6 43 23.5
00395165 2018-10-01 22:43:36 20.6 43 22.6
00395165 2018-10-01 21:40:02 20.6 43 21.4
00395165 2018-10-01 20:36:25 20.6 42 19.8
00395165 2018-10-01 19:32:46 20.6 43 16.2
00395165 2018-10-01 18:29:09 20.4 43 15.8
00395165 2018-10-01 17:25:36 20.4 42 14.6
00395165 2018-10-01 16:21:56 20.4 45 16.1
00395165 2018-10-01 15:18:19 18.9 56 0